Location: Newark
(25.0000°N, 73.5000°E)
Time: 11:10:55
(UTC+00:00)

Tiros 1 despin weight - All Passes

Search period start: 01 March 2021 00:00
Search period end: 11 March 2021 00:00
Orbit: 593 x 642 km, 48.2° (Epoch: 28 February)

Date Brightness Start Highest point End Pass type
(mag) Time Alt. Az. Time Alt. Az. Time Alt. Az.
01 Mar - 01:40:17 10° NNW 01:44:10 25° NE 01:48:00 10° E daylight
01 Mar - 03:21:23 10° WNW 03:25:47 41° SW 03:30:09 10° SSE daylight
01 Mar - 17:21:32 10° SSW 17:25:51 49° SE 17:30:16 10° ENE night (unlit)
01 Mar - 19:04:03 10° W 19:07:33 21° NW 19:11:05 10° NNE night (unlit)
02 Mar - 01:56:08 10° NW 02:00:42 51° NE 02:05:14 10° ESE daylight
02 Mar - 03:38:49 10° W 03:41:56 18° SW 03:45:03 10° S daylight
02 Mar - 15:59:27 10° SSE 16:01:03 12° SE 16:02:42 10° ESE night (unlit)
02 Mar - 17:37:40 10° SW 17:42:09 69° NW 17:46:43 10° NE night (unlit)
02 Mar - 19:22:41 10° NW 19:24:19 12° NNW 19:25:59 10° N night (unlit)
03 Mar - 00:32:02 10° N 00:35:10 17° NNE 00:38:17 10° ENE visible
03 Mar - 02:12:23 10° NW 02:17:03 70° SW 02:21:41 10° SE daylight
03 Mar - 16:13:19 10° S 16:17:10 29° SE 16:21:04 10° ENE night (unlit)
03 Mar - 17:54:35 10° WSW 17:58:37 31° NW 18:02:42 10° NNE night (unlit)
04 Mar - 00:47:35 10° NNW 00:51:48 33° NE 00:56:00 10° ESE visible
04 Mar - 02:29:13 10° WNW 02:33:16 29° SW 02:37:18 10° S daylight
04 Mar - 16:28:56 10° SW 16:33:23 71° SE 16:37:55 10° NE night (unlit)
04 Mar - 18:12:22 10° WNW 18:15:15 16° NNW 18:18:11 10° N night (unlit)
04 Mar - 23:24:11 10° N 23:26:05 12° NNE 23:28:01 10° NE visible
05 Mar - 01:03:35 10° NW 01:08:15 71° NE 01:12:55 10° SE visible
05 Mar - 02:47:30 10° WSW 02:49:23 12° SW 02:51:17 10° SSW daylight
05 Mar - 15:05:38 10° SSE 15:08:32 17° SE 15:11:27 10° E visible
05 Mar - 16:45:24 10° WSW 16:49:44 49° NW 16:54:09 10° NE night (unlit)
05 Mar - 23:39:11 10° NNW 23:42:51 22° NE 23:46:31 10° E visible
06 Mar - 01:20:03 10° WNW 01:24:33 49° SW 01:29:03 10° SSE daylight
06 Mar - 15:20:30 10° SSW 15:24:41 41° SE 15:28:55 10° ENE visible
06 Mar - 17:02:39 10° W 17:06:17 24° NW 17:09:57 10° NNE night (unlit)
06 Mar - 23:54:57 10° NNW 23:59:25 44° NE 00:03:53 10° ESE visible
07 Mar - 01:37:14 10° W 01:40:44 21° SW 01:44:13 10° S daylight
07 Mar - 15:36:30 10° SW 15:40:56 81° NW 15:45:28 10° NE visible
07 Mar - 17:20:59 10° WNW 17:23:01 13° NNW 17:25:04 10° N night (unlit)
07 Mar - 22:31:03 10° N 22:33:50 16° NNE 22:36:38 10° ENE visible
08 Mar - 00:11:07 10° NW 00:15:48 82° SW 00:20:28 10° SE visible
08 Mar - 14:12:25 10° S 14:16:00 24° SE 14:19:37 10° ENE visible
08 Mar - 15:53:16 10° WSW 15:57:21 35° NW 16:01:32 10° NNE visible
08 Mar - 22:46:27 10° NNW 22:50:30 29° NE 22:54:34 10° E visible
09 Mar - 00:27:48 10° WNW 00:32:02 34° SW 00:36:16 10° SSE visible
09 Mar - 14:27:50 10° SSW 14:32:11 60° SE 14:36:37 10° NE visible
09 Mar - 16:10:53 10° WNW 16:13:58 18° NNW 16:17:06 10° N visible
09 Mar - 21:23:31 10° NNE 21:24:45 11° NNE 21:25:59 10° NE night (unlit)
09 Mar - 23:02:22 10° NW 23:07:00 61° NE 23:11:37 10° SE visible
10 Mar - 00:45:36 10° W 00:48:11 15° SW 00:50:45 10° SSW visible
10 Mar - 13:05:00 10° SSE 13:07:22 14° SE 13:09:45 10° E daylight
10 Mar - 14:44:10 10° WSW 14:48:31 56° NW 14:52:56 10° NE visible
10 Mar - 21:38:08 10° NNW 21:41:32 20° NE 21:44:57 10° E night (unlit)
10 Mar - 23:18:43 10° NW 23:23:18 58° SW 23:27:53 10° SSE visible
